Temperature
12 12 12 12 12 12 12 12 12 12 12 12 12 11 11 12 11 11 11 11 11 11 11 11 11 11 11 11 11 11 10 10 10 10 10 10 10 10 10 10 10 10 10
11 11 12 12 12 12 12 12 12 12 12 11 11 11 11 11 11 11 11 11 11 11 11 11 11 10 10 10 10 10 10 10 10 10 10 10 10 9 9 9 9 9 9
11 11 11 11 11 11 11 11 11 11 11 11 11 11 11 10 10 10 10 10 10 10 10 10 10 10 10 10 10 10 10 10 9 9 9 9 9 9 9 8 9 9 9
11 11 11 11 11 11 11 11 11 11 11 11 11 10 10 10 10 10 10 10 10 10 10 10 10 10 10 10 9 9 9 9 9 9 9 9 9 8 8 8 8 8 8
10 10 11 11 11 11 11 11 11 10 10 10 10 10 10 10 10 10 9 9 9 9 10 10 10 10 10 10 9 9 9 9 9 9 8 8 8 8 8 8 8 8 8
10 10 10 10 10 10 10 10 10 10 10 10 10 10 9 9 9 9 9 9 9 9 9 9 9 9 9 9 9 9 9 8 8 8 8 8 8 7 7 8 8 8 8
10 10 10 10 10 10 10 10 10 9 9 9 9 9 9 9 9 8 8 9 9 8 9 9 9 9 9 9 8 8 8 8 8 8 8 7 7 7 7 7 7 7 7
9 9 9 9 9 9 9 9 9 9 9 8 8 8 7 8 8 8 8 8 8 8 8 8 8 8 8 8 8 8 8 8 7 7 7 7 7 7 6 6 7 7 7
9 9 9 9 9 9 9 9 9 9 8 8 8 8 7 7 7 7 7 7 7 7 7 7 7 7 7 7 7 7 7 7 7 7 7 6 6 6 6 6 6 6 6
9 9 9 9 9 9 9 9 8 8 8 8 7 7 7 7 7 6 6 7 7 7 7 7 7 7 7 7 7 7 7 7 7 7 7 6 6 6 6 6 6 6 6
8 8 8 8 8 8 8 8 8 8 8 7 7 7 7 7 7 6 5 6 6 6 6 6 6 6 6 6 6 6 6 6 6 6 6 6 6 6 6 6 5 5 5
8 8 8 8 8 8 8 8 7 7 7 7 7 7 7 7 6 6 6 5 5 6 6 6 6 6 6 6 6 6 6 6 6 6 6 6 6 6 5 5 5 5 5
7 7 7 7 7 7 7 7 7 7 7 7 7 7 6 6 6 6 5 5 5 5 5 5 5 5 5 5 5 5 5 5 5 5 5 5 5 5 5 5 5 5 5
7 7 7 7 7 7 7 7 7 7 6 6 6 6 6 6 6 5 5 5 4 4 4 4 5 5 5 5 5 5 5 5 5 5 5 4 4 4 4 4 4 4 4
6 6 6 6 6 6 6 6 6 6 6 6 6 6 5 5 5 5 5 5 4 3 3 4 4 4 4 4 4 4 4 4 4 4 4 4 4 4 4 4 4 4 4
6 6 6 6 6 6 5 5 5 5 5 5 5 5 5 5 5 5 5 4 4 4 3 3 3 3 3 3 3 3 3 4 4 3 3 3 3 3 3 3 3 3 3
5 5 5 5 5 5 5 5 5 5 5 5 4 4 4 4 4 4 4 4 3 3 3 3 3 3 3 3 3 3 3 3 3 3 3 3 3 3 3 3 3 3 2
5 5 5 5 5 5 4 4 4 4 4 4 4 4 4 4 4 4 3 3 3 3 3 2 2 2 2 2 2 2 3 3 2 2 2 2 2 2 2 2 2 2 2
5 4 4 4 4 4 4 4 4 3 3 3 3 3 3 3 3 3 3 3 3 2 2 2 2 2 2 2 2 2 2 2 2 2 2 2 2 2 2 1 1 1 1
4 4 4 4 4 4 3 3 3 3 3 3 3 3 3 3 3 3 2 2 2 2 2 1 1 1 1 1 1 1 1 1 1 1 1 1 1 1 1 1 1 1 1
4 4 3 3 3 3 3 3 3 2 3 2 2 2 2 2 2 2 2 2 2 1 1 1 1 1 1 1 1 1 1 1 1 1 1 1 1 1 1 1 1 0 0
3 3 3 3 3 3 2 2 2 2 2 2 2 2 2 2 2 2 1 1 1 1 1 0 0 0 0 0 -0 -0 -0 -0 -0 -0 -0 0 0 0 0 0 -0 -0 -0
3 3 2 2 2 2 2 2 2 2 2 2 2 2 1 1 1 1 1 1 1 0 0 0 -0 -0 -0 -0 -1 -1 -1 -1 -1 -1 -1 -1 -0 -0 -0 -0 -0 -1 -1
2 2 2 2 2 1 1 1 1 1 1 1 1 1 1 1 1 0 0 0 0 0 -0 -0 -0 -0 -1 -1 -1 -1 -1 -1 -1 -1 -2 -1 -1 -1 -1 -1 -1 -1 -1
2 1 1 1 1 1 1 1 1 1 1 1 1 0 0 0 0 -0 -0 -0 -0 -0 -0 -1 -1 -1 -1 -1 -1 -1 -2 -2 -2 -1 -2 -2 -2 -2 -1 -1 -1 -1 -1
1 1 1 1 1 1 0 0 0 0 0 0 0 -0 -0 -0 -0 -0 -0 -1 -1 -1 -1 -1 -1 -1 -1 -1 -1 -2 -2 -2 -2 -2 -2 -3 -2 -3 -3 -2 -2 -2 -2
Wind_Speed
2 2 3 3 3 3 2 0 0 1 1 2 3 4 4 5 7 7 6 7 6 6 5 5 5 5 6 5 4 4 4 5 5 6 6 6 7 7 7 7 7 8 8
2 2 3 3 3 3 2 1 1 1 1 2 2 3 4 5 6 6 6 6 7 6 5 4 4 4 4 5 5 4 3 4 4 5 6 6 6 7 7 7 8 8 8
2 2 2 3 3 3 3 2 1 2 2 2 2 2 3 4 4 5 5 6 6 6 5 4 4 3 4 4 4 5 4 3 3 4 5 6 6 7 7 7 8 8 9
3 2 2 2 3 3 3 2 2 2 2 2 1 1 2 2 3 4 5 5 5 5 5 4 3 3 3 3 3 4 4 5 4 4 5 5 6 6 7 7 8 8 9
3 2 1 2 3 3 2 2 2 2 2 2 1 1 1 1 1 3 4 5 4 6 5 4 3 2 3 3 4 4 4 5 5 5 5 5 6 7 7 8 8 9 9
3 3 2 2 3 3 3 2 3 2 2 2 2 1 0 0 1 2 3 4 4 4 4 3 2 1 2 3 4 4 4 5 5 6 6 6 6 7 8 8 9 9 9
3 4 2 2 2 3 4 3 3 3 2 2 2 1 1 1 2 2 3 3 2 2 3 2 2 1 0 1 3 4 5 5 6 6 7 6 7 7 8 9 9 9 9
3 4 3 3 3 3 4 3 3 3 2 2 2 2 0 1 1 2 2 2 2 2 2 2 1 1 1 1 2 4 5 6 7 7 8 8 8 8 9 9 9 10 10
3 3 3 3 3 3 3 3 3 3 4 2 2 2 2 2 1 1 2 2 2 2 2 1 1 1 1 1 1 3 5 7 8 8 9 9 9 9 9 9 10 10 10
3 3 3 3 3 2 3 3 2 2 3 3 1 0 2 2 2 1 1 1 2 2 2 2 2 2 2 1 1 3 5 6 8 9 10 10 10 10 10 10 10 11 11
3 3 3 3 2 2 2 2 2 2 2 3 2 1 1 1 1 2 2 2 1 2 2 2 2 3 2 2 2 4 5 7 8 10 11 10 11 11 11 11 11 11 11
2 2 3 3 2 2 2 2 2 2 2 2 2 2 2 2 2 2 3 3 3 2 2 2 2 3 3 3 4 5 5 7 8 10 11 11 11 11 11 11 11 11 11
2 2 2 2 2 2 2 2 2 2 2 2 2 2 1 2 2 2 2 3 3 3 2 2 3 4 4 4 4 5 6 7 9 10 11 11 12 11 12 12 12 11 12
2 2 2 2 3 3 2 2 2 2 2 2 2 2 1 2 1 2 2 2 3 3 3 4 2 3 3 3 5 6 6 8 9 10 11 11 11 12 12 12 12 11 12
2 2 2 2 2 2 2 2 2 2 2 2 2 2 2 2 1 2 2 3 3 4 5 4 2 2 2 3 6 6 7 8 10 10 11 11 11 12 11 11 12 11 10
2 2 2 3 2 2 2 2 2 2 2 2 2 2 2 2 2 2 2 2 3 4 5 3 3 3 2 4 7 7 8 9 10 11 11 11 11 12 11 11 12 11 11
2 2 2 2 2 2 2 2 2 2 2 2 2 2 2 2 2 2 2 2 3 3 5 5 3 2 3 4 5 6 7 8 8 11 11 12 12 12 12 11 11 11 11
2 2 2 2 2 2 2 2 2 2 3 3 2 2 3 2 3 3 3 3 3 3 4 6 5 3 4 4 4 4 5 7 7 10 12 12 13 13 12 12 11 11 11
2 1 2 2 2 2 2 2 2 2 2 3 3 3 4 3 3 3 3 3 3 3 3 4 5 4 4 3 4 4 5 5 7 9 11 12 13 13 12 12 12 12 12
2 2 1 1 1 1 1 2 2 2 2 2 2 3 4 4 5 4 4 4 4 3 3 4 5 4 4 4 3 4 5 4 5 7 9 11 12 12 12 13 12 12 12
1 2 1 1 1 2 2 2 2 2 2 2 2 3 4 4 5 5 4 4 4 4 4 4 5 4 4 3 4 3 5 5 5 4 4 6 7 7 9 12 12 12 12
1 1 2 2 2 2 3 4 3 2 3 3 3 4 4 4 5 6 8 7 6 6 5 5 5 6 6 5 4 4 4 5 5 3 3 6 4 5 7 8 11 12 12
1 1 1 1 2 2 4 4 4 3 3 4 4 4 4 4 5 4 6 8 8 9 9 6 6 7 7 6 5 5 5 5 6 5 3 6 4 5 7 10 12 12 12
1 1 1 1 1 3 4 4 4 2 3 4 4 4 4 4 4 5 4 4 5 6 7 5 6 6 6 5 5 6 6 5 5 4 3 5 5 5 6 7 11 11 11
1 1 1 2 2 2 4 4 3 2 2 3 4 4 4 4 6 6 4 4 5 5 7 9 10 10 10 9 6 3 3 3 5 5 2 3 4 5 5 5 8 10 11
2 1 2 2 2 3 4 4 4 2 3 3 3 3 5 6 7 6 4 4 5 5 4 5 6 7 7 7 8 5 4 4 4 4 2 2 3 3 5 4 4 5 8
Wind_Direction
162 140 131 131 127 125 140 193 91 134 101 98 91 81 78 86 94 96 87 86 89 89 88 87 82 69 57 56 56 58 53 47 41 34 29 24 19 16 10 4 359 352 348
135 146 142 136 127 127 145 155 106 92 78 78 82 83 90 92 97 107 106 93 91 91 88 84 82 72 57 45 40 36 41 35 27 23 17 13 12 9 6 2 358 354 349
118 135 152 150 134 132 137 123 93 79 77 73 70 65 74 88 104 107 112 109 103 97 94 81 70 63 54 47 38 29 22 12 11 8 4 1 360 357 354 352 350 348 346
126 128 157 160 138 128 118 141 136 110 94 83 74 52 62 81 89 96 102 105 111 108 96 86 74 59 45 38 30 19 13 10 8 8 3 359 357 355 355 354 347 342 338
141 125 154 146 127 119 118 137 122 129 123 98 89 65 36 61 102 102 98 92 106 120 118 104 86 62 32 19 10 7 1 357 357 349 348 349 348 346 346 347 346 341 337
147 132 139 152 130 131 126 127 132 126 137 132 111 79 42 195 130 131 134 113 102 119 129 130 119 89 32 9 356 351 350 345 344 344 336 337 336 336 335 336 336 334 331
153 143 148 154 148 147 149 141 140 136 133 115 88 58 336 221 166 163 150 140 127 120 119 118 106 110 43 351 347 340 336 336 329 328 327 322 322 323 324 325 328 330 330
150 151 151 156 154 152 147 143 149 142 159 142 138 140 76 316 242 186 171 173 171 148 139 126 87 62 123 82 345 336 321 317 321 317 318 317 313 314 315 318 321 323 326
148 142 144 145 150 152 155 159 161 155 174 189 166 158 165 207 276 248 204 184 172 176 171 165 180 228 213 181 311 315 317 316 309 312 310 311 310 308 309 314 317 319 322
144 152 148 143 147 150 158 168 160 162 165 182 197 168 171 158 165 260 263 225 198 201 216 212 203 217 228 236 289 303 301 305 311 307 308 306 309 307 306 310 312 315 317
137 142 137 128 136 152 165 155 149 167 169 179 182 202 229 156 178 199 250 259 265 237 218 204 203 214 225 240 267 292 297 301 302 307 306 306 305 308 305 305 309 311 313
139 137 138 137 147 153 166 167 165 175 181 179 179 182 188 197 209 209 237 247 252 255 241 222 214 218 225 237 261 280 288 298 300 299 304 305 305 305 307 303 304 306 309
148 162 147 149 150 147 152 152 151 173 182 176 188 201 209 224 217 223 228 252 267 265 249 245 227 217 227 234 257 268 277 288 292 294 297 301 304 301 302 303 300 304 306
157 156 144 148 146 142 149 145 149 177 179 178 195 199 223 236 238 225 226 239 268 276 257 249 255 209 228 245 261 267 272 280 283 288 291 296 298 300 298 302 299 300 302
133 139 141 153 141 139 153 156 163 183 187 191 196 200 225 238 226 229 230 216 224 258 265 247 245 246 243 260 267 268 270 277 279 281 285 289 294 296 296 297 300 297 298
127 143 149 151 145 154 167 169 175 188 188 201 201 205 235 249 242 232 231 240 232 239 262 262 250 254 263 272 275 272 268 281 282 279 282 286 290 291 292 291 295 293 293
139 150 160 158 162 171 176 178 188 196 203 212 215 215 239 248 250 246 243 242 248 239 256 276 274 270 266 268 282 275 272 272 273 277 280 282 285 286 287 287 288 291 289
145 147 154 161 173 176 184 186 201 214 211 213 216 224 246 255 252 248 242 242 246 242 244 268 281 282 271 268 273 278 288 281 277 278 279 280 282 282 283 284 285 289 287
147 155 158 172 188 189 188 201 213 224 225 219 215 226 237 235 244 245 244 247 252 257 247 253 273 280 277 281 286 289 290 288 287 282 281 280 280 281 280 282 284 288 287
155 162 165 186 201 207 210 211 220 230 238 240 233 235 238 235 235 234 244 243 247 249 250 252 266 276 276 277 278 281 289 286 285 288 286 285 283 282 281 283 284 286 288
165 158 162 187 205 218 216 206 216 230 236 243 249 250 250 249 249 249 251 243 238 244 251 255 262 273 273 275 270 271 281 292 286 278 284 284 280 277 279 279 279 279 284
171 162 179 194 216 240 232 243 253 242 241 237 247 258 260 259 261 269 266 264 255 247 247 250 258 259 265 267 273 274 278 288 289 283 290 287 277 273 274 271 275 281 284
168 178 187 192 219 229 237 247 254 256 243 239 239 248 262 261 266 254 264 273 271 268 262 253 251 256 261 258 258 267 262 265 269 273 290 286 281 278 280 276 281 285 286
185 205 213 215 232 242 247 253 259 261 254 246 239 238 246 254 255 258 253 258 257 263 267 265 254 258 259 256 245 254 263 274 279 277 266 272 281 282 289 279 281 283 282
210 222 215 219 227 246 253 256 270 253 254 254 255 249 251 251 262 272 265 257 265 269 271 265 264 268 273 275 276 269 267 276 284 281 252 252 281 294 289 274 275 280 283
211 222 231 225 222 234 250 258 269 248 248 257 262 259 258 260 267 267 255 246 260 272 271 276 273 275 276 276 276 257 239 256 278 277 249 241 276 305 298 279 269 277 283
Height
1515 1516 1517 1519 1521 1522 1524 1525 1527 1528 1530 1531 1533 1533 1534 1534 1535 1535 1536 1536 1537 1537 1537 1538 1538 1538 1538 1537 1537 1536 1536 1535 1535 1535 1534 1533 1533 1532 1532 1531 1530 1530 1529
1512 1514 1515 1517 1519 1520 1522 1523 1525 1526 1528 1529 1531 1531 1532 1532 1533 1533 1534 1534 1535 1535 1536 1536 1536 1536 1536 1535 1535 1534 1534 1534 1533 1533 1532 1532 1531 1531 1530 1529 1528 1528 1527
1510 1512 1513 1514 1516 1518 1520 1521 1523 1525 1526 1527 1528 1529 1530 1531 1531 1532 1532 1533 1533 1533 1534 1534 1534 1534 1534 1534 1533 1532 1532 1532 1531 1531 1530 1530 1529 1529 1528 1527 1526 1526 1525
1508 1509 1511 1512 1513 1515 1517 1519 1521 1522 1524 1525 1526 1527 1528 1529 1529 1530 1530 1531 1531 1531 1532 1532 1532 1532 1532 1531 1531 1530 1530 1529 1529 1528 1528 1528 1527 1527 1526 1525 1524 1524 1523
1505 1507 1508 1509 1511 1512 1514 1516 1518 1520 1521 1523 1524 1525 1525 1526 1527 1528 1528 1529 1529 1529 1529 1529 1530 1530 1529 1529 1529 1528 1528 1527 1526 1526 1526 1525 1525 1524 1524 1523 1522 1521 1520
1503 1504 1505 1507 1508 1509 1511 1513 1516 1517 1519 1520 1521 1522 1523 1524 1525 1525 1526 1527 1527 1527 1527 1527 1527 1527 1527 1527 1526 1526 1525 1525 1524 1524 1523 1523 1522 1522 1521 1520 1520 1519 1517
1500 1501 1503 1505 1505 1507 1509 1511 1513 1515 1516 1518 1519 1519 1521 1521 1522 1523 1524 1524 1525 1525 1525 1524 1524 1524 1524 1524 1524 1523 1523 1522 1522 1521 1521 1520 1519 1519 1518 1518 1517 1516 1515
1497 1499 1500 1502 1503 1504 1506 1508 1510 1512 1514 1515 1516 1517 1518 1520 1519 1520 1521 1521 1522 1522 1522 1522 1522 1521 1521 1521 1520 1520 1520 1519 1519 1518 1518 1517 1516 1516 1515 1515 1514 1513 1511
1495 1497 1498 1500 1501 1502 1503 1505 1506 1508 1510 1513 1515 1516 1516 1516 1517 1518 1518 1518 1519 1519 1519 1519 1519 1519 1518 1518 1517 1517 1516 1516 1515 1515 1514 1514 1513 1512 1512 1511 1510 1509 1508
1493 1494 1496 1497 1499 1500 1502 1503 1505 1507 1508 1510 1512 1513 1514 1514 1515 1514 1514 1515 1515 1516 1516 1516 1516 1515 1515 1515 1514 1514 1513 1512 1511 1511 1510 1510 1509 1508 1508 1507 1506 1505 1504
1490 1492 1493 1495 1496 1498 1499 1500 1502 1504 1506 1507 1508 1510 1511 1511 1512 1512 1510 1511 1512 1512 1513 1513 1512 1512 1512 1511 1511 1510 1509 1508 1508 1507 1506 1506 1505 1504 1504 1503 1502 1501 1500
1488 1489 1491 1492 1494 1496 1497 1498 1500 1501 1503 1504 1505 1507 1508 1508 1508 1509 1508 1507 1508 1508 1509 1509 1509 1508 1508 1507 1507 1506 1505 1504 1504 1503 1502 1501 1500 1500 1499 1498 1497 1497 1496
1485 1487 1488 1490 1491 1493 1494 1496 1497 1499 1500 1501 1502 1503 1504 1504 1505 1505 1505 1504 1504 1504 1504 1505 1505 1505 1504 1503 1503 1502 1501 1500 1499 1498 1497 1496 1496 1495 1494 1494 1493 1492 1491
1483 1484 1485 1487 1488 1490 1491 1492 1494 1495 1497 1498 1498 1499 1500 1500 1501 1502 1502 1502 1500 1499 1499 1500 1500 1500 1500 1499 1499 1498 1497 1496 1495 1494 1493 1492 1491 1490 1489 1488 1488 1487 1486
1481 1482 1483 1484 1485 1487 1488 1489 1490 1491 1493 1494 1495 1495 1496 1496 1497 1498 1498 1499 1499 1496 1494 1495 1495 1496 1496 1495 1494 1493 1492 1491 1490 1489 1488 1487 1486 1485 1484 1484 1483 1482 1481
1478 1479 1480 1481 1482 1483 1485 1486 1487 1488 1489 1490 1491 1491 1492 1492 1493 1493 1494 1494 1494 1494 1491 1490 1490 1491 1491 1490 1490 1489 1487 1486 1485 1484 1483 1482 1481 1480 1479 1478 1477 1477 1476
1476 1476 1477 1478 1479 1480 1482 1483 1483 1485 1485 1485 1486 1487 1488 1488 1488 1489 1489 1489 1489 1489 1487 1485 1486 1486 1486 1485 1484 1484 1483 1481 1480 1479 1478 1476 1476 1475 1474 1473 1472 1471 1470
1473 1474 1475 1476 1476 1477 1478 1479 1480 1481 1481 1482 1482 1483 1484 1484 1484 1484 1484 1484 1484 1484 1483 1481 1480 1481 1480 1480 1479 1478 1477 1476 1475 1474 1473 1472 1471 1469 1468 1468 1467 1466 1465
1471 1472 1472 1473 1473 1474 1475 1476 1477 1478 1478 1478 1479 1479 1479 1480 1480 1480 1480 1479 1479 1479 1478 1477 1476 1476 1475 1475 1474 1473 1472 1471 1470 1468 1467 1466 1465 1464 1463 1462 1461 1460 1459
1468 1469 1470 1470 1471 1471 1472 1473 1474 1474 1474 1474 1474 1475 1475 1475 1475 1475 1475 1474 1474 1474 1473 1472 1471 1471 1470 1470 1469 1467 1466 1465 1464 1463 1461 1460 1459 1458 1457 1456 1455 1454 1453
1466 1466 1467 1467 1468 1468 1469 1469 1470 1470 1470 1470 1470 1471 1471 1471 1471 1471 1470 1470 1469 1469 1468 1468 1467 1466 1465 1464 1463 1462 1461 1459 1458 1457 1455 1454 1453 1452 1451 1450 1449 1448 1448
1463 1463 1463 1464 1464 1465 1465 1466 1466 1466 1466 1466 1466 1466 1466 1467 1466 1466 1466 1465 1465 1464 1463 1463 1462 1461 1459 1459 1459 1458 1457 1455 1452 1452 1450 1448 1448 1446 1445 1444 1443 1443 1442
1460 1460 1460 1461 1461 1462 1462 1463 1463 1463 1462 1462 1462 1462 1462 1462 1462 1461 1460 1460 1459 1459 1459 1459 1457 1456 1455 1454 1454 1453 1452 1450 1448 1447 1445 1442 1441 1440 1440 1439 1438 1437 1436
1456 1457 1457 1457 1458 1458 1459 1459 1459 1459 1458 1458 1458 1458 1457 1457 1457 1456 1456 1455 1454 1454 1453 1453 1452 1451 1451 1450 1449 1449 1447 1445 1443 1442 1441 1438 1435 1435 1434 1433 1432 1431 1430
1453 1454 1454 1454 1454 1455 1455 1455 1455 1454 1454 1454 1454 1453 1453 1452 1452 1452 1451 1450 1449 1448 1448 1448 1447 1446 1446 1445 1444 1443 1441 1440 1437 1436 1436 1434 1431 1429 1427 1427 1426 1425 1424
1450 1451 1451 1451 1451 1451 1452 1451 1451 1450 1450 1450 1449 1449 1449 1448 1448 1447 1446 1445 1444 1443 1443 1442 1442 1441 1440 1439 1439 1438 1437 1435 1433 1431 1431 1430 1427 1426 1422 1420 1420 1420 1418